Orbital Elements at Epoch 2459000.5 (2020-May-31.0) TDB
Reference: JPL 36 (heliocentric ecliptic J2000)
Element | Value | Uncertainty (1-sigma) | Units |
e | .08454431663848337 | 3.8455e-08 | |
a | 3.087438036108901 | 1.302e-08 | au |
q | 2.826412697182413 | 1.1911e-07 | au |
i | 9.803119585711153 | 4.2654e-06 | deg |
node | 42.57857852759063 | 2.0783e-05 | deg |
peri | 162.7471196995304 | 2.9318e-05 | deg |
M | 150.829162582042 | 2.1861e-05 | deg |
tp | 2458170.307852504477 (2018-Feb-20.80785250) | 0.00011871 | TDB |
period | 1981.507872761818 5.43 | 1.2534e-05 3.432e-08 | d yr |
n | .1816798232036461 | 1.1493e-09 | deg/d |
Q | 3.34846337503539 | 1.4121e-08 | au |
|
| | Orbit Determination Parameters
Additional Information
|